ATLAS CENTAUR R/B - Orbit

View from above orbital plane
View from above orbital plane
View from above satellite
View from above satellite

Ground track
Ground track

The orbit data is extracted from the following two-line orbital elements,

1 28385U 04034B   13141.02835864 0.00085000  00000-0  15417-2 0    09
2 28385  57.3396 190.0610 4337019 131.0642 275.4179  6.91759351    03
Epoch (UTC): 21 May 2013 00:40:50
Eccentricity: 0.4337019
inclination: 57.3396°
perigee height: 211 km
apogee height: 10303 km
right ascension of ascending node: 190.0610°
argument of perigee: 131.0642°
revolutions per day: 6.91759351
mean anomaly at epoch: 275.4179°
orbit number at epoch: 0

The dashed part of the orbit path shows where the satellite is in the earth's shadow,  

Developed and maintained by Chris Peat, Heavens-Above GmbH. Please read the updated FAQ before sending e-mail. Imprint. DLR